Hourly Weather Roundup
Issued by NWS Central Illinois

Home | Current Version | Previous Version | Text Only | Print | Product List | Glossary On
Versions: 1 2 3 4 5 6 7 8 9 10 11 12 13 14 15 16 17 18 19 20 21 22 23 24 25 26 27 28 29 30 31 32 33 34 35 36 37 38 39 40 41 42 43 44 45 46 47 48 49 50
580
NZUS43 KILX 230810
HWRILX

Area Weather Roundup
National Weather Service Lincoln IL
300 AM CDT MON APR 23 2018

NOTE:  "FAIR" indicates few or no clouds below 12,000 feet, with
       no sigificant weather and/or obstructions to visibility.


CITY           SKY/WX    TMP DP  RH WIND       PRES   REMARKS
Bloomington    FAIR      45  30  55 NE12      30.14F
Champaign      FAIR      50  30  46 NE15      30.10F
Danville       FAIR      46  28  48 NE8       30.10S
Decatur        CLOUDY    51  32  48 NE14      30.07F
Effingham      CLOUDY    56  37  49 NE6       30.03F
Flora          LGT RAIN  55  41  58 NE6       30.00F
Galesburg      FAIR      50  32  50 NE10      30.15F
Jacksonville   CLOUDY    53  33  46 NE10      30.08S
Lacon          FAIR      46  29  51 NE3       30.16S
Lawrenceville  CLOUDY    58  37  45 NE8       30.02S
Litchfield     CLOUDY    53  36  50 NE16      30.02F
$$


CITY           SKY/WX    TMP DP  RH WIND       PRES   REMARKS
Lincoln        MOCLDY    52  32  45 NE13G21   30.10S
Macomb         PTCLDY    48  32  53 NE12      30.14F
Mattoon        CLOUDY    53  34  48 NE15      30.04F
Mt Carmel AP   LGT RAIN  53  42  65 NE9       30.00F
Olney-Noble AP LGT RAIN  55  34  45 NE6       30.01S
Paris AP       FAIR      51  32  49 NE13      30.08F
Peoria         FAIR      51  27  39 E17G25    30.14F
Pontiac        FAIR      42  32  66 NE10      30.16F
Rantoul        FAIR      48  29  47 NE12      30.12F
Robinson       CLOUDY    57  33  40 NE10G18   30.03S
Springfield    CLOUDY    54  33  45 NE16      30.09S
Taylorville    CLOUDY    54  32  44 NE13      30.06S
$$

...REGIONAL REPORTS...


CITY           SKY/WX    TMP DP  RH WIND       PRES   REMARKS
Chicago O`Hare MOCLDY    43  30  60 NE8       30.20F
Kankakee       FAIR      41  28  60 NE5       30.17F
La Salle       FAIR      45  32  61 NE10      30.18F
Moline         FAIR      45  29  53 NE6       30.17F
Mount Sterling CLOUDY    53  32  45 E12       30.09F
Mount Vernon   LGT RAIN  51  44  77 NE13      29.96F
Pittsfield     CLOUDY    55  34  45 N9        30.08F
Quincy         CLOUDY    52  34  50 NE12      30.09F
Rockford       CLOUDY    42  26  53 NE8       30.24F
$$


CITY           SKY/WX    TMP DP  RH WIND       PRES   REMARKS
Burlington     CLOUDY    50  28  42 NE12      30.13F
Cedar Rapids   FAIR      49  29  46 NE12      30.18F
Des Moines     PTCLDY    51  31  46 E6        30.17F
Kirksville     CLOUDY    52  33  48 NE10      30.11F
Ottumwa        CLOUDY    49  29  46 NE8       30.16S
St Louis       LGT RAIN  57  38  48 NE12      30.01F
$$


CITY           SKY/WX    TMP DP  RH WIND       PRES   REMARKS
Terre Haute    CLOUDY    54  34  46 NE12      30.05F
Evansville     RAIN      51  47  86 NE13      29.97F
Indianapolis   MOCLDY    50  29  44 NE15G22   30.09F
Lafayette      FAIR      46  25  43 NE14      30.14S
Madison        FAIR      36  28  73 W3        30.26R
Milwaukee      FAIR      40  29  64 N3        30.27R
$$






USA.gov is the U.S. government's official web portal to all federal, state and local government web resources and services.